| time (UTC) | temp F | wind direction | speed MPH | gust MPH | rain 1hr in | rain 24hr in | rain mn in | humidity % | barometer mb |
| 20260507052016 | 39 | 280 | 3.0 | 7.0 | 0.00 | 0.00 | 0.00 | 60 | 1015.1 |
| 20260507051531 | 39 | 316 | 3.0 | 5.0 | 0.00 | 0.00 | 0.00 | 60 | 1015.2 |
| 20260507051015 | 39 | 288 | 3.0 | 8.0 | 0.00 | 0.00 | 0.00 | 60 | 1015.2 |
| 20260507050515 | 39 | 311 | 5.0 | 9.0 | 0.00 | 0.00 | 0.00 | 59 | 1015.1 |
| 20260507050036 | 40 | 292 | 4.0 | 9.0 | 0.00 | 0.00 | 0.00 | 59 | 1015.2 |
| 20260507045515 | 40 | 301 | 4.0 | 7.0 | 0.00 | 0.00 | 0.00 | 59 | 1015.2 |
| 20260507045017 | 40 | 294 | 3.0 | 7.0 | 0.00 | 0.00 | 0.00 | 58 | 1015.2 |
| 20260507044536 | 40 | 338 | 3.0 | 7.0 | 0.00 | 0.00 | 0.00 | 58 | 1015.3 |
| 20260507044015 | 40 | 293 | 4.0 | 9.0 | 0.00 | 0.00 | 0.00 | 57 | 1015.3 |
| 20260507043516 | 40 | 303 | 3.0 | 9.0 | 0.00 | 0.00 | 0.00 | 57 | 1015.3 |
| 20260507043032 | 41 | 295 | 4.0 | 8.0 | 0.00 | 0.00 | 0.00 | 56 | 1015.2 |
| 20260507042515 | 41 | 312 | 5.0 | 9.0 | 0.00 | 0.00 | 0.00 | 56 | 1015.2 |
| 20260507042015 | 41 | 260 | 5.0 | 9.0 | 0.00 | 0.00 | 0.00 | 56 | 1015.2 |
| 20260507041542 | 41 | 269 | 4.0 | 9.0 | 0.00 | 0.00 | 0.00 | 55 | 1015.2 |
| 20260507041016 | 42 | 306 | 4.0 | 10.0 | 0.00 | 0.00 | 0.00 | 55 | 1015.3 |
| 20260507040516 | 42 | 325 | 3.0 | 12.0 | 0.00 | 0.00 | 0.00 | 54 | 1015.3 |
| 20260507040032 | 42 | 311 | 5.0 | 12.0 | 0.00 | 0.00 | 0.00 | 54 | 1015.3 |
| 20260507035515 | 42 | 292 | 6.0 | 12.0 | 0.00 | 0.00 | 0.00 | 54 | 1015.4 |
| 20260507035016 | 42 | 316 | 7.0 | 12.0 | 0.00 | 0.00 | 0.00 | 53 | 1015.4 |
| 20260507034533 | 42 | 306 | 7.0 | 12.0 | 0.00 | 0.00 | 0.00 | 53 | 1015.3 |
| 20260507034016 | 42 | 279 | 7.0 | 12.0 | 0.00 | 0.00 | 0.00 | 53 | 1015.3 |
| 20260507033515 | 43 | 308 | 5.0 | 13.0 | 0.00 | 0.00 | 0.00 | 53 | 1015.3 |
| 20260507033034 | 43 | 315 | 8.0 | 13.0 | 0.00 | 0.00 | 0.00 | 52 | 1015.3 |
| 20260507032513 | 43 | 300 | 7.0 | 11.0 | 0.00 | 0.00 | 0.00 | 52 | 1015.3 |
| 20260507032015 | 43 | 254 | 5.0 | 11.0 | 0.00 | 0.00 | 0.00 | 52 | 1015.3 |
| 20260507031531 | 43 | 329 | 6.0 | 11.0 | 0.00 | 0.00 | 0.00 | 52 | 1015.4 |
| 20260507031018 | 43 | 300 | 6.0 | 14.0 | 0.00 | 0.00 | 0.00 | 52 | 1015.4 |
| 20260507030516 | 43 | 321 | 4.0 | 14.0 | 0.00 | 0.00 | 0.00 | 52 | 1015.4 |
| 20260507030032 | 43 | 310 | 9.0 | 13.0 | 0.00 | 0.00 | 0.00 | 51 | 1015.3 |
| 20260507025515 | 43 | 303 | 4.0 | 10.0 | 0.00 | 0.00 | 0.00 | 51 | 1015.3 |
| 20260507025016 | 43 | 276 | 5.0 | 10.0 | 0.00 | 0.00 | 0.00 | 51 | 1015.2 |
| 20260507024531 | 44 | 338 | 4.0 | 10.0 | 0.00 | 0.00 | 0.00 | 50 | 1015.1 |
| 20260507024014 | 44 | 300 | 6.0 | 16.0 | 0.00 | 0.00 | 0.00 | 49 | 1015.1 |
| 20260507023525 | 44 | 325 | 6.0 | 16.0 | 0.00 | 0.00 | 0.00 | 49 | 1015.1 |
| 20260507023030 | 44 | 310 | 5.0 | 14.0 | 0.00 | 0.00 | 0.00 | 49 | 1015.1 |
| 20260507022516 | 44 | 313 | 7.0 | 13.0 | 0.00 | 0.00 | 0.00 | 48 | 1015.0 |
| 20260507022018 | 44 | 264 | 7.0 | 12.0 | 0.00 | 0.00 | 0.00 | 49 | 1015.0 |
| 20260507021531 | 44 | 333 | 8.0 | 13.0 | 0.00 | 0.00 | 0.00 | 48 | 1014.9 |
| 20260507021018 | 44 | 288 | 6.0 | 13.0 | 0.00 | 0.00 | 0.00 | 48 | 1014.7 |
| 20260507020516 | 44 | 315 | 6.0 | 17.0 | 0.00 | 0.00 | 0.00 | 48 | 1014.7 |
| 20260507020031 | 44 | 303 | 9.0 | 17.0 | 0.00 | 0.00 | 0.00 | 47 | 1014.7 |
| 20260507015516 | 45 | 315 | 5.0 | 13.0 | 0.00 | 0.00 | 0.00 | 48 | 1014.6 |
| 20260507015015 | 45 | 281 | 8.0 | 17.0 | 0.00 | 0.00 | 0.00 | 47 | 1014.5 |
| 20260507014541 | 45 | 300 | 9.0 | 17.0 | 0.00 | 0.00 | 0.00 | 47 | 1014.5 |
| 20260507014015 | 45 | 297 | 8.0 | 15.0 | 0.00 | 0.00 | 0.00 | 47 | 1014.3 |
| 20260507013518 | 45 | 295 | 9.0 | 15.0 | 0.00 | 0.00 | 0.00 | 46 | 1014.2 |
| 20260507013031 | 46 | 320 | 7.0 | 15.0 | 0.00 | 0.00 | 0.00 | 47 | 1014.2 |
| 20260507012515 | 46 | 313 | 10.0 | 15.0 | 0.00 | 0.00 | 0.00 | 46 | 1014.1 |
| 20260507012015 | 46 | 326 | 7.0 | 15.0 | 0.00 | 0.00 | 0.00 | 46 | 1014.1 |
| 20260507011530 | 46 | 324 | 8.0 | 17.0 | 0.00 | 0.00 | 0.00 | 46 | 1014.1 |
| 20260507011015 | 47 | 304 | 11.0 | 17.0 | 0.00 | 0.00 | 0.00 | 45 | 1014.0 |
| 20260507010516 | 47 | 300 | 11.0 | 17.0 | 0.00 | 0.00 | 0.00 | 45 | 1014.0 |
| 20260507010031 | 47 | 316 | 7.0 | 13.0 | 0.00 | 0.00 | 0.00 | 45 | 1014.0 |
| 20260507005515 | 47 | 321 | 8.0 | 13.0 | 0.00 | 0.00 | 0.00 | 45 | 1013.9 |
| 20260507005015 | 47 | 325 | 7.0 | 13.0 | 0.00 | 0.00 | 0.00 | 45 | 1013.9 |
| 20260507004536 | 47 | 298 | 7.0 | 13.0 | 0.00 | 0.00 | 0.00 | 44 | 1013.8 |
| 20260507004016 | 47 | 302 | 6.0 | 13.0 | 0.00 | 0.00 | 0.00 | 45 | 1013.9 |
| 20260507003516 | 48 | 323 | 5.0 | 16.0 | 0.00 | 0.00 | 0.00 | 45 | 1013.8 |
| 20260507003032 | 48 | 300 | 9.0 | 16.0 | 0.00 | 0.00 | 0.00 | 44 | 1013.7 |
| 20260507002515 | 48 | 298 | 6.0 | 15.0 | 0.00 | 0.00 | 0.00 | 44 | 1013.7 |
| 20260507002015 | 48 | 318 | 9.0 | 15.0 | 0.00 | 0.00 | 0.00 | 43 | 1013.7 |
| 20260507001531 | 48 | 270 | 10.0 | 15.0 | 0.00 | 0.00 | 0.00 | 42 | 1013.6 |
| 20260507001016 | 48 | 267 | 6.0 | 17.0 | 0.00 | 0.00 | 0.00 | 43 | 1013.6 |
| 20260507000516 | 49 | 328 | 9.0 | 17.0 | 0.00 | 0.00 | 0.00 | 43 | 1013.5 |
| 20260507000031 | 49 | 252 | 7.0 | 16.0 | 0.00 | 0.00 | 0.00 | 43 | 1013.4 |
| 20260506235516 | 49 | 291 | 9.0 | 16.0 | 0.00 | 0.00 | 0.00 | 42 | 1013.5 |
| 20260506235015 | 49 | 314 | 10.0 | 15.0 | 0.00 | 0.00 | 0.00 | 42 | 1013.4 |
| 20260506234537 | 49 | 335 | 6.0 | 19.0 | 0.00 | 0.00 | 0.00 | 42 | 1013.4 |
| 20260506234016 | 49 | 298 | 9.0 | 19.0 | 0.00 | 0.00 | 0.00 | 41 | 1013.4 |
| 20260506233516 | 49 | 266 | 8.0 | 15.0 | 0.00 | 0.00 | 0.00 | 41 | 1013.4 |
| 20260506233029 | 49 | 317 | 8.0 | 18.0 | 0.00 | 0.00 | 0.00 | 41 | 1013.4 |
| 20260506232515 | 49 | 325 | 7.0 | 18.0 | 0.00 | 0.00 | 0.00 | 42 | 1013.4 |
| 20260506232015 | 50 | 298 | 8.0 | 15.0 | 0.00 | 0.00 | 0.00 | 41 | 1013.5 |
| 20260506231538 | 50 | 314 | 8.0 | 19.0 | 0.00 | 0.00 | 0.00 | 41 | 1013.3 |
| 20260506231015 | 50 | 307 | 11.0 | 19.0 | 0.00 | 0.00 | 0.00 | 41 | 1013.3 |
| 20260506230516 | 50 | 313 | 12.0 | 18.0 | 0.00 | 0.00 | 0.00 | 39 | 1013.3 |
| 20260506230039 | 50 | 296 | 10.0 | 17.0 | 0.00 | 0.00 | 0.00 | 40 | 1013.3 |
| 20260506225520 | 50 | 314 | 8.0 | 17.0 | 0.00 | 0.00 | 0.00 | 40 | 1013.2 |
| 20260506225016 | 50 | 308 | 10.0 | 17.0 | 0.00 | 0.00 | 0.00 | 40 | 1013.2 |
| 20260506224532 | 50 | 337 | 9.0 | 16.0 | 0.00 | 0.00 | 0.00 | 40 | 1013.2 |
| 20260506224016 | 50 | 301 | 7.0 | 15.0 | 0.00 | 0.00 | 0.00 | 40 | 1013.2 |
| 20260506223515 | 50 | 315 | 7.0 | 15.0 | 0.00 | 0.00 | 0.00 | 40 | 1013.2 |
| 20260506223044 | 50 | 297 | 9.0 | 15.0 | 0.00 | 0.00 | 0.00 | 40 | 1013.1 |
| 20260506222516 | 50 | 313 | 7.0 | 12.0 | 0.00 | 0.00 | 0.00 | 40 | 1013.1 |
| 20260506222016 | 50 | 311 | 7.0 | 14.0 | 0.00 | 0.00 | 0.00 | 39 | 1013.0 |
| 20260506221532 | 50 | 336 | 8.0 | 16.0 | 0.00 | 0.00 | 0.00 | 40 | 1013.0 |
| 20260506221019 | 50 | 248 | 7.0 | 16.0 | 0.00 | 0.00 | 0.00 | 40 | 1013.0 |
| 20260506220518 | 50 | 312 | 9.0 | 17.0 | 0.00 | 0.00 | 0.00 | 40 | 1012.9 |
| 20260506220032 | 50 | 287 | 10.0 | 17.0 | 0.00 | 0.00 | 0.00 | 40 | 1012.9 |
| 20260506215518 | 50 | 316 | 9.0 | 14.0 | 0.00 | 0.00 | 0.00 | 40 | 1012.8 |
| 20260506215015 | 50 | 288 | 8.0 | 17.0 | 0.00 | 0.00 | 0.00 | 40 | 1012.9 |
| 20260506214529 | 51 | 309 | 10.0 | 17.0 | 0.00 | 0.00 | 0.00 | 39 | 1012.9 |
| 20260506214015 | 51 | 304 | 6.0 | 18.0 | 0.00 | 0.00 | 0.00 | 39 | 1012.7 |
| 20260506213520 | 51 | 308 | 6.0 | 18.0 | 0.00 | 0.00 | 0.00 | 40 | 1012.8 |
| 20260506213036 | 51 | 294 | 10.0 | 18.0 | 0.00 | 0.00 | 0.00 | 40 | 1012.8 |
| 20260506212516 | 51 | 295 | 7.0 | 14.0 | 0.00 | 0.00 | 0.00 | 40 | 1012.6 |
| 20260506212016 | 51 | 291 | 8.0 | 20.0 | 0.00 | 0.00 | 0.00 | 38 | 1012.6 |
| 20260506211544 | 51 | 327 | 6.0 | 20.0 | 0.00 | 0.00 | 0.00 | 39 | 1012.7 |
| 20260506211016 | 51 | 309 | 7.0 | 20.0 | 0.00 | 0.00 | 0.00 | 40 | 1012.8 |
| 20260506210516 | 52 | 306 | 9.0 | 16.0 | 0.00 | 0.00 | 0.00 | 39 | 1012.8 |
| 20260506210035 | 52 | 298 | 9.0 | 16.0 | 0.00 | 0.00 | 0.00 | 39 | 1012.8 |
| 20260506205515 | 52 | 288 | 7.0 | 16.0 | 0.00 | 0.00 | 0.00 | 38 | 1012.8 |
| 20260506205015 | 51 | 312 | 10.0 | 16.0 | 0.00 | 0.00 | 0.00 | 38 | 1012.8 |
| 20260506204531 | 52 | 298 | 6.0 | 17.0 | 0.00 | 0.00 | 0.00 | 38 | 1012.8 |
| 20260506204015 | 52 | 286 | 8.0 | 17.0 | 0.00 | 0.00 | 0.00 | 40 | 1012.8 |
| 20260506203515 | 52 | 304 | 9.0 | 17.0 | 0.00 | 0.00 | 0.00 | 37 | 1012.9 |
| 20260506203031 | 52 | 259 | 6.0 | 15.0 | 0.00 | 0.00 | 0.00 | 39 | 1012.9 |
| 20260506202515 | 52 | 251 | 6.0 | 15.0 | 0.00 | 0.00 | 0.00 | 38 | 1013.0 |
| 20260506202016 | 52 | 337 | 6.0 | 16.0 | 0.00 | 0.00 | 0.00 | 40 | 1013.0 |
| 20260506201538 | 52 | 308 | 10.0 | 18.0 | 0.00 | 0.00 | 0.00 | 38 | 1013.0 |
| 20260506201015 | 52 | 300 | 11.0 | 18.0 | 0.00 | 0.00 | 0.00 | 37 | 1013.0 |
| 20260506200515 | 53 | 279 | 7.0 | 17.0 | 0.00 | 0.00 | 0.00 | 37 | 1013.0 |
| 20260506200030 | 52 | 294 | 6.0 | 16.0 | 0.00 | 0.00 | 0.00 | 39 | 1013.1 |
| 20260506195517 | 52 | 304 | 8.0 | 16.0 | 0.00 | 0.00 | 0.00 | 39 | 1013.2 |
| 20260506195016 | 52 | 300 | 6.0 | 12.0 | 0.00 | 0.00 | 0.00 | 39 | 1013.2 |
| 20260506194531 | 51 | 243 | 6.0 | 14.0 | 0.00 | 0.00 | 0.00 | 40 | 1013.1 |
| 20260506194016 | 52 | 315 | 6.0 | 15.0 | 0.00 | 0.00 | 0.00 | 40 | 1013.0 |
| 20260506193516 | 51 | 238 | 7.0 | 15.0 | 0.00 | 0.00 | 0.00 | 39 | 1012.9 |
| 20260506193029 | 52 | 280 | 8.0 | 14.0 | 0.00 | 0.00 | 0.00 | 39 | 1012.9 |
| 20260506192516 | 53 | 293 | 7.0 | 15.0 | 0.00 | 0.00 | 0.00 | 40 | 1012.9 |
| 20260506192015 | 52 | 267 | 9.0 | 15.0 | 0.00 | 0.00 | 0.00 | 41 | 1012.9 |
| 20260506191537 | 51 | 327 | 7.0 | 15.0 | 0.00 | 0.00 | 0.00 | 39 | 1013.0 |
| 20260506191016 | 52 | 278 | 9.0 | 21.0 | 0.00 | 0.00 | 0.00 | 38 | 1013.2 |
| 20260506190520 | 53 | 249 | 13.0 | 21.0 | 0.00 | 0.00 | 0.00 | 37 | 1013.0 |
| 20260506190031 | 53 | 247 | 9.0 | 17.0 | 0.00 | 0.00 | 0.00 | 39 | 1013.0 |
| 20260506185516 | 53 | 259 | 7.0 | 14.0 | 0.00 | 0.00 | 0.00 | 41 | 1013.1 |
| 20260506185018 | 51 | 298 | 6.0 | 16.0 | 0.00 | 0.00 | 0.00 | 41 | 1013.1 |
| 20260506184531 | 51 | 300 | 10.0 | 19.0 | 0.00 | 0.00 | 0.00 | 41 | 1013.2 |
| 20260506184017 | 51 | 322 | 11.0 | 19.0 | 0.00 | 0.00 | 0.00 | 39 | 1012.9 |
| 20260506183514 | 52 | 308 | 10.0 | 18.0 | 0.00 | 0.00 | 0.00 | 39 | 1013.0 |
| 20260506183039 | 51 | 306 | 7.0 | 15.0 | 0.00 | 0.00 | 0.00 | 42 | 1013.0 |
| 20260506182512 | 51 | 317 | 9.0 | 15.0 | 0.00 | 0.00 | 0.00 | 41 | 1013.0 |
| 20260506182015 | 52 | 267 | 9.0 | 15.0 | 0.00 | 0.00 | 0.00 | 37 | 1012.9 |
| 20260506181530 | 52 | 239 | 4.0 | 19.0 | 0.00 | 0.00 | 0.00 | 42 | 1012.9 |
| 20260506181017 | 51 | 311 | 10.0 | 23.0 | 0.00 | 0.00 | 0.00 | 40 | 1013.0 |
| 20260506180516 | 52 | 304 | 11.0 | 23.0 | 0.00 | 0.00 | 0.00 | 39 | 1012.9 |
| 20260506180030 | 52 | 292 | 8.0 | 17.0 | 0.00 | 0.00 | 0.00 | 43 | 1012.9 |
| 20260506175519 | 51 | 311 | 9.0 | 18.0 | 0.00 | 0.00 | 0.00 | 38 | 1013.1 |
| 20260506175015 | 52 | 311 | 11.0 | 18.0 | 0.00 | 0.00 | 0.00 | 40 | 1013.2 |
| 20260506174530 | 52 | 317 | 8.0 | 17.0 | 0.00 | 0.00 | 0.00 | 41 | 1013.2 |
| 20260506174014 | 53 | 273 | 5.0 | 16.0 | 0.00 | 0.00 | 0.00 | 42 | 1013.2 |
| 20260506173516 | 51 | 234 | 5.0 | 20.0 | 0.00 | 0.00 | 0.00 | 43 | 1013.2 |
| 20260506173031 | 50 | 304 | 8.0 | 20.0 | 0.00 | 0.00 | 0.00 | 41 | 1013.3 |
| 20260506172516 | 51 | 306 | 11.0 | 20.0 | 0.00 | 0.00 | 0.00 | 40 | 1013.3 |
| 20260506172018 | 51 | 302 | 7.0 | 14.0 | 0.00 | 0.00 | 0.00 | 45 | 1013.3 |
| 20260506171533 | 50 | 288 | 9.0 | 17.0 | 0.00 | 0.00 | 0.00 | 41 | 1013.4 |
| 20260506171019 | 50 | 317 | 9.0 | 18.0 | 0.00 | 0.00 | 0.00 | 43 | 1013.5 |
| 20260506170522 | 49 | 252 | 10.0 | 18.0 | 0.00 | 0.00 | 0.00 | 42 | 1013.6 |
| 20260506170046 | 50 | 296 | 11.0 | 18.0 | 0.00 | 0.00 | 0.00 | 42 | 1013.6 |
| 20260506165516 | 50 | 334 | 7.0 | 14.0 | 0.00 | 0.00 | 0.00 | 42 | 1013.6 |
| 20260506165016 | 50 | 290 | 4.0 | 16.0 | 0.00 | 0.00 | 0.00 | 45 | 1013.6 |
| 20260506164536 | 49 | 295 | 6.0 | 17.0 | 0.00 | 0.00 | 0.00 | 44 | 1013.6 |
| 20260506164021 | 49 | 232 | 10.0 | 17.0 | 0.00 | 0.00 | 0.00 | 43 | 1013.6 |
| 20260506163515 | 50 | 246 | 8.0 | 13.0 | 0.00 | 0.00 | 0.00 | 41 | 1013.4 |
| 20260506163035 | 49 | 300 | 5.0 | 16.0 | 0.00 | 0.00 | 0.00 | 46 | 1013.5 |
| 20260506162518 | 49 | 261 | 10.0 | 18.0 | 0.00 | 0.00 | 0.00 | 45 | 1013.6 |
| 20260506162024 | 50 | 296 | 11.0 | 19.0 | 0.00 | 0.00 | 0.00 | 44 | 1013.6 |
| 20260506161539 | 50 | 288 | 9.0 | 19.0 | 0.00 | 0.00 | 0.00 | 40 | 1013.4 |
| 20260506161019 | 51 | 252 | 8.0 | 19.0 | 0.00 | 0.00 | 0.00 | 41 | 1013.5 |
| 20260506160520 | 49 | 262 | 7.0 | 20.0 | 0.00 | 0.00 | 0.00 | 44 | 1013.4 |
| 20260506160035 | 49 | 308 | 10.0 | 20.0 | 0.00 | 0.00 | 0.00 | 44 | 1013.6 |
| 20260506155522 | 50 | 247 | 10.0 | 17.0 | 0.00 | 0.00 | 0.00 | 42 | 1013.6 |
| 20260506155016 | 49 | 275 | 9.0 | 25.0 | 0.00 | 0.00 | 0.00 | 42 | 1013.5 |
| 20260506154541 | 50 | 309 | 12.0 | 25.0 | 0.00 | 0.00 | 0.00 | 42 | 1013.6 |
| 20260506154018 | 48 | 304 | 8.0 | 18.0 | 0.00 | 0.00 | 0.00 | 44 | 1013.5 |
| 20260506153518 | 48 | 255 | 11.0 | 18.0 | 0.00 | 0.00 | 0.00 | 43 | 1013.5 |
| 20260506153034 | 50 | 317 | 11.0 | 18.0 | 0.00 | 0.00 | 0.00 | 42 | 1013.4 |
| 20260506152517 | 49 | 296 | 8.0 | 15.0 | 0.00 | 0.00 | 0.00 | 42 | 1013.4 |
| 20260506152021 | 48 | 327 | 8.0 | 15.0 | 0.00 | 0.00 | 0.00 | 43 | 1013.4 |
| 20260506151539 | 49 | 302 | 9.0 | 15.0 | 0.00 | 0.00 | 0.00 | 44 | 1013.3 |
| 20260506151017 | 49 | 306 | 4.0 | 12.0 | 0.00 | 0.00 | 0.00 | 43 | 1013.3 |
| 20260506150517 | 49 | 289 | 7.0 | 12.0 | 0.00 | 0.00 | 0.00 | 43 | 1013.5 |
| 20260506150035 | 48 | 324 | 4.0 | 12.0 | 0.00 | 0.00 | 0.00 | 43 | 1013.3 |
| 20260506145517 | 48 | 317 | 5.0 | 14.0 | 0.00 | 0.00 | 0.00 | 43 | 1013.4 |
| 20260506145017 | 49 | 282 | 6.0 | 14.0 | 0.00 | 0.00 | 0.00 | 42 | 1013.4 |
| 20260506144540 | 49 | 315 | 9.0 | 14.0 | 0.00 | 0.00 | 0.00 | 44 | 1013.2 |
| 20260506144015 | 49 | 360 | 7.0 | 15.0 | 0.00 | 0.00 | 0.00 | 43 | 1013.4 |
| 20260506143517 | 49 | 264 | 8.0 | 15.0 | 0.00 | 0.00 | 0.00 | 41 | 1013.3 |
| 20260506143034 | 48 | 250 | 5.0 | 12.0 | 0.00 | 0.00 | 0.00 | 43 | 1013.3 |
| 20260506142513 | 48 | 308 | 8.0 | 12.0 | 0.00 | 0.00 | 0.00 | 43 | 1013.3 |
| 20260506142017 | 48 | 276 | 7.0 | 12.0 | 0.00 | 0.00 | 0.00 | 43 | 1013.2 |
| 20260506141532 | 48 | 290 | 6.0 | 9.0 | 0.00 | 0.00 | 0.00 | 47 | 1013.1 |
| 20260506141016 | 47 | 249 | 5.0 | 10.0 | 0.00 | 0.00 | 0.00 | 49 | 1013.2 |
| 20260506140516 | 48 | 254 | 4.0 | 10.0 | 0.00 | 0.00 | 0.00 | 48 | 1013.3 |
| 20260506140030 | 47 | 265 | 6.0 | 10.0 | 0.00 | 0.00 | 0.00 | 50 | 1013.2 |
| 20260506135515 | 47 | 233 | 3.0 | 7.0 | 0.00 | 0.00 | 0.00 | 51 | 1013.2 |
| 20260506135015 | 47 | 311 | 3.0 | 5.0 | 0.00 | 0.00 | 0.00 | 56 | 1013.2 |
| 20260506134529 | 46 | 207 | 2.0 | 4.0 | 0.00 | 0.00 | 0.00 | 57 | 1013.2 |
| 20260506134014 | 45 | 259 | 2.0 | 4.0 | 0.00 | 0.00 | 0.00 | 57 | 1013.2 |
| 20260506133514 | 45 | 270 | 2.0 | 5.0 | 0.00 | 0.00 | 0.00 | 56 | 1013.2 |
| 20260506133032 | 45 | 244 | 2.0 | 5.0 | 0.00 | 0.00 | 0.00 | 55 | 1013.2 |
| 20260506132515 | 45 | 252 | 2.0 | 4.0 | 0.00 | 0.00 | 0.00 | 57 | 1013.3 |
| 20260506132020 | 45 | 270 | 2.0 | 7.0 | 0.00 | 0.00 | 0.00 | 57 | 1013.2 |
| 20260506131533 | 45 | 252 | 2.0 | 7.0 | 0.00 | 0.00 | 0.00 | 57 | 1013.2 |
| 20260506131016 | 45 | 275 | 3.0 | 6.0 | 0.00 | 0.00 | 0.00 | 56 | 1013.2 |
| 20260506130517 | 45 | 294 | 2.0 | 4.0 | 0.00 | 0.00 | 0.00 | 57 | 1013.2 |
| 20260506130032 | 45 | 238 | 1.0 | 4.0 | 0.00 | 0.00 | 0.00 | 56 | 1013.0 |
| 20260506125516 | 45 | 265 | 0.0 | 2.0 | 0.00 | 0.00 | 0.00 | 56 | 1013.0 |
| 20260506125015 | 44 | 165 | 0.0 | 2.0 | 0.00 | 0.00 | 0.00 | 59 | 1012.9 |
| 20260506124531 | 43 | 165 | 0.0 | 2.0 | 0.00 | 0.00 | 0.00 | 60 | 1012.9 |
| 20260506124015 | 43 | 321 | 1.0 | 2.0 | 0.00 | 0.00 | 0.00 | 60 | 1012.8 |
| 20260506123515 | 43 | 134 | 1.0 | 4.0 | 0.00 | 0.00 | 0.00 | 62 | 1012.8 |
| 20260506123033 | 42 | 140 | 0.0 | 4.0 | 0.00 | 0.00 | 0.00 | 62 | 1012.8 |
| 20260506122516 | 42 | 165 | 0.0 | 2.0 | 0.00 | 0.00 | 0.00 | 63 | 1012.8 |
| 20260506122017 | 42 | 212 | 0.0 | 2.0 | 0.00 | 0.00 | 0.00 | 69 | 1012.7 |
| 20260506121530 | 41 | 228 | 0.0 | 2.0 | 0.00 | 0.00 | 0.00 | 70 | 1012.7 |
| 20260506121016 | 40 | 89 | 0.0 | 2.0 | 0.00 | 0.00 | 0.00 | 72 | 1012.7 |
| 20260506120517 | 40 | 0 | 0.0 | 2.0 | 0.00 | 0.00 | 0.00 | 71 | 1012.8 |
| 20260506120040 | 39 | 0 | 0.0 | 2.0 | 0.00 | 0.00 | 0.00 | 75 | 1012.7 |
| 20260506115514 | 39 | 0 | 0.0 | 0.0 | 0.00 | 0.00 | 0.00 | 76 | 1012.6 |
| 20260506115014 | 39 | 0 | 0.0 | 0.0 | 0.00 | 0.00 | 0.00 | 74 | 1012.7 |
| 20260506114533 | 39 | 0 | 0.0 | 1.0 | 0.00 | 0.00 | 0.00 | 75 | 1012.7 |
| 20260506114013 | 38 | 0 | 0.0 | 1.0 | 0.00 | 0.00 | 0.00 | 76 | 1012.5 |
| 20260506113516 | 38 | 0 | 0.0 | 1.0 | 0.00 | 0.00 | 0.00 | 76 | 1012.5 |
| 20260506113033 | 38 | 0 | 0.0 | 1.0 | 0.00 | 0.00 | 0.00 | 75 | 1012.5 |
| 20260506112514 | 37 | 0 | 0.0 | 2.0 | 0.00 | 0.00 | 0.00 | 76 | 1012.6 |
| 20260506112018 | 37 | 0 | 0.0 | 2.0 | 0.00 | 0.00 | 0.00 | 73 | 1012.4 |
| 20260506111531 | 37 | 0 | 0.0 | 2.0 | 0.00 | 0.00 | 0.00 | 77 | 1012.3 |
| 20260506111017 | 37 | 0 | 0.0 | 2.0 | 0.00 | 0.00 | 0.00 | 77 | 1012.3 |
| 20260506110513 | 37 | 0 | 0.0 | 2.0 | 0.00 | 0.00 | 0.00 | 75 | 1012.3 |
| 20260506110032 | 37 | 289 | 0.0 | 2.0 | 0.00 | 0.00 | 0.00 | 74 | 1012.2 |
| 20260506105514 | 37 | 0 | 0.0 | 0.0 | 0.00 | 0.00 | 0.00 | 76 | 1012.2 |
| 20260506105014 | 37 | 0 | 0.0 | 0.0 | 0.00 | 0.00 | 0.00 | 76 | 1012.0 |
| 20260506104533 | 36 | 0 | 0.0 | 2.0 | 0.00 | 0.00 | 0.00 | 76 | 1012.0 |
| 20260506104014 | 36 | 0 | 0.0 | 2.0 | 0.00 | 0.00 | 0.00 | 77 | 1012.0 |
| 20260506103516 | 36 | 278 | 0.0 | 1.0 | 0.00 | 0.00 | 0.00 | 77 | 1012.2 |
| 20260506103035 | 36 | 278 | 0.0 | 2.0 | 0.00 | 0.00 | 0.00 | 78 | 1012.2 |
| 20260506102516 | 36 | 278 | 0.0 | 2.0 | 0.00 | 0.00 | 0.00 | 79 | 1012.0 |
| 20260506102015 | 36 | 0 | 0.0 | 0.0 | 0.00 | 0.00 | 0.00 | 77 | 1012.0 |
| 20260506101530 | 36 | 0 | 0.0 | 2.0 | 0.00 | 0.00 | 0.00 | 78 | 1011.9 |
| 20260506101013 | 36 | 0 | 0.0 | 2.0 | 0.00 | 0.00 | 0.00 | 77 | 1011.8 |
| 20260506100513 | 36 | 0 | 0.0 | 2.0 | 0.00 | 0.00 | 0.00 | 76 | 1011.8 |
| 20260506100031 | 36 | 278 | 0.0 | 2.0 | 0.00 | 0.00 | 0.00 | 74 | 1011.9 |
| 20260506095514 | 36 | 0 | 0.0 | 2.0 | 0.00 | 0.00 | 0.00 | 76 | 1011.8 |
| 20260506095016 | 36 | 0 | 0.0 | 2.0 | 0.00 | 0.00 | 0.00 | 76 | 1011.8 |
| 20260506094532 | 36 | 278 | 1.0 | 2.0 | 0.00 | 0.00 | 0.00 | 74 | 1012.0 |
| 20260506094016 | 36 | 273 | 1.0 | 3.0 | 0.00 | 0.00 | 0.00 | 74 | 1012.0 |
| 20260506093518 | 36 | 282 | 1.0 | 3.0 | 0.00 | 0.00 | 0.00 | 74 | 1012.0 |
| 20260506093031 | 35 | 279 | 1.0 | 2.0 | 0.00 | 0.00 | 0.00 | 76 | 1012.0 |
| 20260506092514 | 35 | 280 | 0.0 | 2.0 | 0.00 | 0.00 | 0.00 | 77 | 1012.0 |
| 20260506092014 | 35 | 0 | 0.0 | 2.0 | 0.00 | 0.00 | 0.00 | 77 | 1011.9 |
| 20260506091532 | 35 | 280 | 0.0 | 2.0 | 0.00 | 0.00 | 0.00 | 77 | 1011.8 |
| 20260506091016 | 35 | 0 | 0.0 | 2.0 | 0.00 | 0.00 | 0.00 | 77 | 1011.9 |
| 20260506090513 | 35 | 0 | 0.0 | 2.0 | 0.00 | 0.00 | 0.00 | 77 | 1011.8 |
| 20260506090043 | 35 | 280 | 1.0 | 2.0 | 0.00 | 0.00 | 0.00 | 76 | 1011.8 |
| 20260506085517 | 35 | 280 | 1.0 | 3.0 | 0.00 | 0.00 | 0.00 | 76 | 1011.7 |
| 20260506085014 | 35 | 282 | 1.0 | 3.0 | 0.00 | 0.00 | 0.00 | 76 | 1011.6 |
| 20260506084530 | 35 | 282 | 2.0 | 3.0 | 0.00 | 0.00 | 0.00 | 77 | 1011.6 |
| 20260506084015 | 35 | 277 | 2.0 | 3.0 | 0.00 | 0.00 | 0.00 | 78 | 1011.7 |
| 20260506083516 | 35 | 276 | 2.0 | 3.0 | 0.00 | 0.00 | 0.00 | 78 | 1011.5 |
| 20260506083030 | 35 | 279 | 2.0 | 3.0 | 0.00 | 0.00 | 0.00 | 79 | 1011.5 |
| 20260506082534 | 35 | 283 | 2.0 | 3.0 | 0.00 | 0.00 | 0.00 | 78 | 1011.4 |
| 20260506082015 | 35 | 278 | 1.0 | 2.0 | 0.00 | 0.00 | 0.00 | 77 | 1011.5 |
| 20260506081536 | 35 | 276 | 1.0 | 2.0 | 0.00 | 0.00 | 0.00 | 75 | 1011.5 |
| 20260506081015 | 36 | 276 | 0.0 | 2.0 | 0.00 | 0.00 | 0.00 | 74 | 1011.4 |
| 20260506080512 | 36 | 276 | 1.0 | 1.0 | 0.00 | 0.00 | 0.00 | 73 | 1011.3 |
| 20260506073516 | 37 | 276 | 0.0 | 1.0 | 0.00 | 0.00 | 0.00 | 73 | 1011.2 |
| 20260506073032 | 36 | 276 | 1.0 | 2.0 | 0.00 | 0.00 | 0.00 | 74 | 1011.3 |
| 20260506072516 | 36 | 276 | 1.0 | 2.0 | 0.00 | 0.00 | 0.00 | 73 | 1011.3 |
| 20260506072015 | 37 | 276 | 1.0 | 2.0 | 0.00 | 0.00 | 0.00 | 72 | 1011.3 |
| 20260506071532 | 37 | 274 | 1.0 | 2.0 | 0.00 | 0.00 | 0.00 | 72 | 1011.2 |
| 20260506071015 | 37 | 273 | 1.0 | 2.0 | 0.00 | 0.00 | 0.00 | 71 | 1011.3 |
| 20260506070515 | 37 | 288 | 1.0 | 2.0 | 0.00 | 0.00 | 0.00 | 70 | 1011.4 |
| 20260506062516 | 38 | 298 | 1.0 | 1.0 | 0.00 | 0.00 | 0.00 | 65 | 1011.4 |
| 20260506062013 | 38 | 298 | 1.0 | 1.0 | 0.00 | 0.00 | 0.00 | 62 | 1011.4 |
| 20260506061546 | 38 | 298 | 0.0 | 1.0 | 0.00 | 0.00 | 0.00 | 63 | 1011.3 |
| 20260506061016 | 38 | 298 | 0.0 | 1.0 | 0.00 | 0.00 | 0.00 | 62 | 1011.3 |
| 20260506060519 | 39 | 298 | 1.0 | 1.0 | 0.00 | 0.00 | 0.00 | 62 | 1011.3 |